Regional Weather Roundup
Issued by NWS

Home | Current Version | Previous Version | Text Only | Print | Product List | Glossary On
Versions: 1 2 3 4 5 6 7 8 9 10 11 12 13 14 15 16 17 18 19 20 21 22 23 24 25 26 27 28 29 30 31 32 33 34 35 36 37 38 39 40 41 42 43 44 45 46 47 48 49 50
000
ASUS44 KMEG 280710
RWRTN
TENNESSEE HOURLY STATE WEATHER ROUNDUP
NATIONAL WEATHER SERVICE MEMPHIS TN
200 AM CDT THU JUL 28 2016

TNZ002-004-019-021-049-052-054-088>092-280800-
WEST TENNESSEE

CITY           SKY/WX    TMP DP  RH WIND       PRES   REMARKS
MEMPHIS INTL   LGT RAIN  77  73  88 SW5       29.91F
NWS MEMPHIS      N/A     76 N/A N/A MISG        N/A
JACKSON        CLOUDY    77  75  93 S3        29.92F
DYERSBURG      CLOUDY    73  73 100 CALM      29.90F
UNION CITY     CLOUDY    73  73 100 CALM      29.90F
$$

TNZ008-025-027-028-033-062-065-066-280800-
NORTH MIDDLE TENNESSEE

CITY           SKY/WX    TMP DP  RH WIND       PRES   REMARKS
NASHVILLE      RAIN      79  72  79 SW6       29.95S
CLARKSVILLE    HVY RAIN  72  71  97 E7        29.93F FOG
SMYRNA         MOCLDY    80  73  79 SW7       29.95F
COOKEVILLE     MOCLDY    77  72  83 SW8       29.98F
CROSSVILLE     MOCLDY    73  69  87 VRB3      30.05S
$$

TNZ061-075-076-078-094-096-097-280800-
SOUTH MIDDLE TENNESSEE

CITY           SKY/WX    TMP DP  RH WIND       PRES   REMARKS
FAYETTEVILLE   CLOUDY    77  73  88 S6        29.99F
TULLAHOMA      CLOUDY    75  72  88 S3        30.00F
WINCHESTER     CLOUDY    77  72  83 SE5       30.00F
$$

TNZ017-018-042-046-047-280800-
NORTHEAST TENNESSEE

CITY           SKY/WX    TMP DP  RH WIND       PRES   REMARKS
TRI CITIES     CLOUDY    71  68  90 CALM      30.04F
ELIZABETHTON   CLOUDY    73  72  94 CALM      30.05F
$$

TNZ012-013-036-069-073-074-280800-
CENTRAL EAST TENNESSEE

CITY           SKY/WX    TMP DP  RH WIND       PRES   REMARKS
KNOXVILLE      CLOUDY    79  69  71 SW12      29.99F
OAK RIDGE      PTCLDY    81  68  64 VRB5      30.00F
MORRISTOWN     CLOUDY    77  73  88 E6        30.02F
$$

TNZ083-085-099-280800-
SOUTHEAST TENNESSEE

CITY           SKY/WX    TMP DP  RH WIND       PRES   REMARKS
CHATTANOOGA    PTCLDY    78  69  73 SE3       30.00F
$$

SKY/WX REPORTED AS FAIR MEANS FEW OR NO CLOUDS BELOW
12 THOUSAND FEET.





USA.gov is the U.S. government's official web portal to all federal, state and local government web resources and services.